Regional Weather Roundup
Issued by NWS Upton, NY

Current Version | Previous Version | Text Only | Print | Product List | Glossary On
Versions: 1 2 3 4 5 6 7 8 9 10 11 12 13 14 15 16 17 18 19 20 21 22 23 24 25 26 27
000
ASUS41 KOKX 171605
RWROKX

REGIONAL WEATHER ROUNDUP
NATIONAL WEATHER SERVICE NEW YORK NY
1200 PM EDT THU APR 17 2014

NOTE: "FAIR" INDICATES FEW OR NO CLOUDS BELOW 12,000 FEET WITH NO
SIGNIFICANT WEATHER AND/OR OBSTRUCTIONS TO VISIBILITY.

NYZ071-072-176-178-NJZ106-104-171700-
NEW YORK CITY METRO AREA


CITY           SKY/WX    TMP DP  RH WIND       PRES   REMARKS
CENTRAL PARK   SUNNY     45  25  45 NE10      30.75F
LAGUARDIA APRT PTSUNNY   41  25  53 NE17      30.73F
KENNEDY INTL   MOSUNNY   47  29  49 SE13G20   30.73F
NEWARK/LIBERTY PTSUNNY   46  25  43 N3        30.73F
TETERBORO      SUNNY     45  22  40 E13       30.73F
$$

NYZ177-179-078>081-171700-
LONG ISLAND NEW YORK

CITY           SKY/WX    TMP DP  RH WIND       PRES   REMARKS
FARMINGDALE    MOSUNNY   45  29  53 SE14      30.72F
ISLIP          PTSUNNY   47  25  42 NE9       30.71S
SHIRLEY        MOSUNNY   44  26  49 NE9       30.74S
WESTHAMPTON    MOSUNNY   45  26  47 NE15G23   30.74F
MONTAUK POINT    N/A     43  25  49 NE14G20   30.75F
$$

NYZ052-065-067-171700-
HUDSON VALLEY

CITY           SKY/WX    TMP DP  RH WIND       PRES   REMARKS
WHITE PLAINS   SUNNY     42  23  46 SE9       30.71F
NEWBURGH       SUNNY     43  18  36 E9        30.72F
MONTGOMERY     SUNNY     45  19  35 VRB7      30.70F
POUGHKEEPSIE   SUNNY     45  19  35 SE7       30.71F
ALBANY         PTSUNNY   42  16  34 VRB6      30.73F
$$

NJZ001-105-106-008-010-013-015-019>022-104-171700-
NEW JERSEY

CITY           SKY/WX    TMP DP  RH WIND       PRES   REMARKS
NEWARK/LIBERTY PTSUNNY   46  25  43 N3        30.73F
TETERBORO      SUNNY     45  22  40 E13       30.73F
CALDWELL       SUNNY     42  23  46 SE10G18   30.73F
MORRISTOWN     MOSUNNY   45  25  45 SE12G17   30.73F
SOMERVILLE     SUNNY     48  21  34 E8        30.69F
LINDEN         FAIR      46  27  46 S9        30.75S
SUSSEX           N/A     47  21  35 E9        30.69F
ANDOVER          N/A     44  16  32 VRB6      30.69F
TRENTON        SUNNY     47  24  40 SE13      30.69F
MILLVILLE      MOSUNNY   50  31  48 E14       30.68F
ATLANTIC CITY  CLOUDY    44  30  57 E15G25    30.70S
WRIGHTSTOWN    PTSUNNY   45  29  54 NE13      30.69R
TOMS RIVER     CLOUDY    43  28  56 E7        30.72F
BELMAR         CLOUDY    43  27  52 E16G22    30.72F
$$

PAZ047>061-062-071-171700-
EASTERN PENNSYLVANIA

CITY           SKY/WX    TMP DP  RH WIND       PRES   REMARKS
PHILADELPHIA   MOSUNNY   51  26  37 SE12G20   30.70F
ALLENTOWN      SUNNY     48  24  39 E9G17     30.68F
SCRANTON       SUNNY     47  19  33 VRB5      30.62F
$$

CTZ002-004>006-009-010-012-RIZ004-006-007-MAZ004-011-015-171700-
SOUTHERN NEW ENGLAND
 IN CT

CITY           SKY/WX    TMP DP  RH WIND       PRES   REMARKS
BRADLEY INTL   MOSUNNY   43  17  35 NE8G18    30.74F
HARTFORD       SUNNY     43  19  38 VRB6      30.74F
DANBURY        SUNNY     41  19  41 SE7       30.72F
WTRBRY/OXFORD  MOSUNNY   41  21  45 E12       30.73F
BRIDGEPORT     SUNNY     41  26  55 SE12      30.74F
MERIDEN        SUNNY     46  22  38 N9        30.73F
NEW HAVEN      MOSUNNY   44  26  49 SE12      30.73F
CHESTER        FAIR      43  21  42 E8        30.72F
GROTON         SUNNY     46  23  40 E8G17     30.72F
WILLIMANTIC    SUNNY     44  20  38 E10G18    30.74F

 IN RI

CITY           SKY/WX    TMP DP  RH WIND       PRES   REMARKS
PROVIDENCE     MOSUNNY   44  21  40 E17G23    30.76F
BLOCK ISLAND   SUNNY     41  27  56 E18G25    30.73F
WESTERLY       SUNNY     44  22  41 E14G26    30.74F

 IN MA

CITY           SKY/WX    TMP DP  RH WIND       PRES   REMARKS
BOSTON         MOSUNNY   39  24  55 E17       30.81F WCI  30
WORCESTER      SUNNY     37  19  48 E10       30.73F WCI  30
WESTFIELD      SUNNY     42  18  37 NE15      30.75F
PROVINCETOWN   PTSUNNY   39  27  60 MISG      30.79F
NANTUCKET      CLOUDY    40  25  55 NE22G29   30.73S WCI  30
$$

ANZ330-335-338-340-345-350-353-355-171700-
COASTAL MARINE OBSERVATIONS


STATION/POSITION TIME  SKY/WX   TEMP    WIND        PRES    VSBY  WAVE
                                AIR SEA DIR/SP/G                  HT/PER
                 (UTC)          (F)     (DEG/KT/KT) (MB)    (MI)  (FT/S)
NY HARB ENTRANCE 1600            39 43   70/ 17/ 21 1040.4
4S FIRE IS       1500               43                N/A           6/ 6
23SW MTP         1600            38 42   60/ 17/ 25 1040.1          7/ 7
HUDSON CANYON    1500            41 45   60/ 21/ 25 1038.1         10/ 7
EXECUTION ROCKS  1600            38 42   60/ 17/ 21   N/A
WESTERN LI SOUND 1600            38      80/ 16/ 17   N/A           3/ 5
CENTRAL LI SOUND 1500            37 42  100/ 10/ 14   N/A           2/ 3
EASTERN LI SOUND NOT AVBL
ROBBINS REEF     1600            40      30/  9/ 12   N/A
$$


>>>>>>>>>>>>>>>>>>>>>>>>>>>> KEY <<<<<<<<<<<<<<<<<<<<<<<<<<<
>                                                          <
>     SKY/WX - SKY CONDITION/PRESENT WEATHER               <
>     TMP    - TEMPERATURE IN FAHRENHEIT                   <
>     DP     - DEWPOINT IN FAHRENHEIT                      <
>     RH     - RELATIVE HUMIDITY IN PERCENT                <
>     WIND   - DIRECTION AND SPEED IN MPH                  <
>     PRES   - MEAN SEA LEVEL PRESSURE IN INCHES OF HG     <
>     WCI    - WIND CHILL INDEX                            <
>     VSB    - VISIBILITY IN MILES                         <
>     HX     - HEAT INDEX                                  <
>     TC     - TEMPERATURE IN CELSIUS                      <
>     VRB    - VARIABLE WIND DIRECTION                     <
>                                                          <
>>>>>>>>>>>>>>>>>>>>>>>>>>>> KEY <<<<<<<<<<<<<<<<<<<<<<<<<<<





USA.gov is the U.S. government's official web portal to all federal, state and local government web resources and services.